When you browse on this site, cookies collect data to enhance your experience and personalize the content and advertising you see.
Visit our Privacy Policy to learn more. By continuing to use the site, you agree to this use of cookies and data.
  • In Österreich
  • Länderverzeichnis
  • Für 7 Tage
  • Wassertemperatur
  • Satellitenkarten
  • Wetterkarte
  • News
  • Widgets
  • user-avatar
    Anmelden

    Stündliche Wetter Gedshon

    Heute, 24 März, Sonntag

    Zeit Temperatur Niederschläge Wind Luftdruck Luftfeuchtigkeit
    00:00 +1°C° 0 mm 1 m/S 751 mmHg 61%
    01:00 +1°C° 0 mm 1 m/S 751 mmHg 61%
    02:00 0°C° 0 mm 1 m/S 751 mmHg 59%
    03:00 0°C° 0 mm 1 m/S 751 mmHg 59%
    04:00 0°C° 0 mm 1 m/S 751 mmHg 59%
    05:00 0°C° 0 mm 1 m/S 751 mmHg 59%
    06:00 +2°C° 0 mm 1 m/S 752 mmHg 53%
    07:00 +3°C° 0 mm 1 m/S 752 mmHg 48%
    08:00 +5°C° 0 mm 1 m/S 752 mmHg 34%
    09:00 +5°C° 0 mm 2 m/S 752 mmHg 32%
    10:00 +6°C° 0 mm 2 m/S 751 mmHg 31%
    11:00 +8°C° 0 mm 2 m/S 751 mmHg 29%
    12:00 +8°C° 0 mm 3 m/S 751 mmHg 31%
    13:00 +8°C° 0 mm 4 m/S 750 mmHg 33%
    14:00 +9°C° 0 mm 3 m/S 749 mmHg 36%
    15:00 +7°C° 0 mm 4 m/S 749 mmHg 41%
    16:00 +6°C° 0 mm 4 m/S 749 mmHg 45%
    17:00 +5°C° 0 mm 4 m/S 749 mmHg 49%
    18:00 +4°C° 0 mm 3 m/S 749 mmHg 55%
    19:00 +4°C° 0 mm 2 m/S 749 mmHg 60%
    20:00 +3°C° 0 mm 2 m/S 749 mmHg 65%
    21:00 +2°C° 0 mm 2 m/S 749 mmHg 67%
    22:00 +2°C° 0 mm 2 m/S 749 mmHg 70%
    23:00 +2°C° 0 mm 2 m/S 749 mmHg 72%

    Morgen, 25 März, Montag

    Zeit Temperatur Niederschläge Wind Luftdruck Luftfeuchtigkeit
    00:00 +2°C° 0 mm 2 m/S 749 mmHg 73%
    01:00 +2°C° 0 mm 2 m/S 749 mmHg 74%
    02:00 +1°C° 0 mm 2 m/S 748 mmHg 75%
    03:00 +1°C° 0 mm 2 m/S 748 mmHg 76%
    04:00 +1°C° 0 mm 2 m/S 748 mmHg 77%
    05:00 +1°C° 0 mm 2 m/S 748 mmHg 78%
    06:00 +3°C° 0 mm 2 m/S 748 mmHg 74%
    07:00 +5°C° 0 mm 2 m/S 748 mmHg 69%
    08:00 +7°C° 0 mm 3 m/S 748 mmHg 65%
    09:00 +9°C° 0 mm 3 m/S 748 mmHg 62%
    10:00 +10°C° 0 mm 4 m/S 748 mmHg 59%
    11:00 +12°C° 0 mm 4 m/S 748 mmHg 56%
    12:00 +13°C° 0 mm 5 m/S 747 mmHg 54%
    13:00 +13°C° 0 mm 5 m/S 747 mmHg 52%
    14:00 +14°C° 0 mm 5 m/S 747 mmHg 51%
    15:00 +13°C° 0 mm 5 m/S 747 mmHg 54%
    16:00 +12°C° 0 mm 4 m/S 746 mmHg 57%
    17:00 +11°C° 0 mm 4 m/S 746 mmHg 60%
    18:00 +10°C° 0 mm 3 m/S 747 mmHg 66%
    19:00 +9°C° 0 mm 3 m/S 747 mmHg 73%
    20:00 +7°C° 0 mm 2 m/S 747 mmHg 79%
    21:00 +7°C° 0 mm 2 m/S 747 mmHg 81%
    22:00 +7°C° 0 mm 2 m/S 747 mmHg 82%
    23:00 +6°C° 0 mm 2 m/S 747 mmHg 84%

    übermorgen, 26 März, Dienstag

    Zeit Temperatur Niederschläge Wind Luftdruck Luftfeuchtigkeit
    00:00 +6°C° 0 mm 2 m/S 747 mmHg 86%
    01:00 +6°C° 0 mm 2 m/S 747 mmHg 89%
    02:00 +6°C° 0 mm 2 m/S 747 mmHg 92%
    03:00 +6°C° 0 mm 2 m/S 747 mmHg 92%
    04:00 +6°C° 0 mm 2 m/S 747 mmHg 92%
    05:00 +7°C° 0 mm 2 m/S 747 mmHg 92%
    06:00 +8°C° 0 mm 2 m/S 748 mmHg 88%
    07:00 +9°C° 0 mm 2 m/S 748 mmHg 84%
    08:00 +10°C° 0 mm 2 m/S 749 mmHg 80%
    09:00 +13°C° 0 mm 2 m/S 749 mmHg 65%
    10:00 +14°C° 0 mm 3 m/S 749 mmHg 51%
    11:00 +17°C° 0 mm 3 m/S 749 mmHg 37%
    12:00 +17°C° 0 mm 4 m/S 749 mmHg 31%
    13:00 +17°C° 0 mm 4 m/S 749 mmHg 26%
    14:00 +18°C° 0 mm 4 m/S 749 mmHg 21%
    15:00 +17°C° 0 mm 3 m/S 749 mmHg 24%
    16:00 +16°C° 0 mm 2 m/S 749 mmHg 27%
    17:00 +15°C° 0 mm 1 m/S 749 mmHg 30%
    18:00 +14°C° 0 mm 1 m/S 749 mmHg 33%
    19:00 +12°C° 0 mm 1 m/S 749 mmHg 35%
    20:00 +10°C° 0 mm 1 m/S 749 mmHg 38%
    21:00 +10°C° 0 mm 1 m/S 750 mmHg 40%
    22:00 +9°C° 0 mm 1 m/S 750 mmHg 42%
    23:00 +9°C° 0 mm 1 m/S 750 mmHg 43%

    27 März, Mittwoch

    Zeit Temperatur Niederschläge Wind Luftdruck Luftfeuchtigkeit
    00:00 +9°C° 0 mm 1 m/S 749 mmHg 44%
    01:00 +9°C° 0 mm 1 m/S 749 mmHg 44%
    02:00 +9°C° 0 mm 1 m/S 749 mmHg 44%
    03:00 +9°C° 0 mm 1 m/S 748 mmHg 44%
    04:00 +8°C° 0 mm 2 m/S 748 mmHg 43%
    05:00 +8°C° 0 mm 2 m/S 747 mmHg 43%
    06:00 +10°C° 0 mm 3 m/S 747 mmHg 44%
    07:00 +11°C° 0 mm 4 m/S 747 mmHg 45%
    08:00 +13°C° 0 mm 5 m/S 747 mmHg 46%
    09:00 +14°C° 0 mm 6 m/S 746 mmHg 44%
    10:00 +16°C° 0 mm 7 m/S 746 mmHg 42%
    11:00 +18°C° 0 mm 8 m/S 745 mmHg 40%
    12:00 +18°C° 0 mm 8 m/S 745 mmHg 39%
    13:00 +18°C° 0 mm 8 m/S 744 mmHg 37%
    14:00 +18°C° 0 mm 9 m/S 743 mmHg 36%
    15:00 +17°C° 0 mm 8 m/S 743 mmHg 46%
    16:00 +15°C° 0 mm 8 m/S 743 mmHg 57%
    17:00 +13°C° 0 mm 8 m/S 743 mmHg 67%
    18:00 +12°C° 0 mm 7 m/S 743 mmHg 71%
    19:00 +11°C° 0 mm 6 m/S 744 mmHg 75%
    20:00 +10°C° 0 mm 5 m/S 744 mmHg 80%
    21:00 +9°C° 0 mm 5 m/S 744 mmHg 76%
    22:00 +8°C° 0 mm 4 m/S 745 mmHg 72%
    23:00 +8°C° 0 mm 3 m/S 745 mmHg 67%

    28 März, Donnerstag

    Zeit Temperatur Niederschläge Wind Luftdruck Luftfeuchtigkeit
    00:00 +7°C° 0 mm 3 m/S 745 mmHg 64%
    01:00 +5°C° 0 mm 4 m/S 746 mmHg 61%
    02:00 +4°C° 0 mm 4 m/S 746 mmHg 57%
    03:00 +3°C° 0 mm 3 m/S 746 mmHg 57%
    04:00 +3°C° 0 mm 3 m/S 747 mmHg 56%
    05:00 +2°C° 0 mm 3 m/S 747 mmHg 55%
    06:00 +3°C° 0 mm 3 m/S 748 mmHg 50%
    07:00 +3°C° 0 mm 4 m/S 748 mmHg 45%
    08:00 +4°C° 0 mm 4 m/S 748 mmHg 40%
    09:00 +5°C° 0 mm 4 m/S 748 mmHg 36%
    10:00 +6°C° 0 mm 4 m/S 748 mmHg 33%
    11:00 +7°C° 0 mm 4 m/S 748 mmHg 29%
    12:00 +8°C° 0 mm 4 m/S 747 mmHg 29%
    13:00 +8°C° 0 mm 5 m/S 747 mmHg 29%
    14:00 +8°C° 0 mm 5 m/S 747 mmHg 30%
    15:00 +7°C° 0 mm 5 m/S 747 mmHg 33%
    16:00 +6°C° 0 mm 4 m/S 746 mmHg 36%
    17:00 +5°C° 0 mm 4 m/S 746 mmHg 39%
    18:00 +4°C° 0 mm 4 m/S 747 mmHg 43%
    19:00 +4°C° 0 mm 3 m/S 747 mmHg 46%
    20:00 +3°C° 0 mm 3 m/S 748 mmHg 50%
    21:00 +2°C° 0 mm 3 m/S 748 mmHg 49%
    22:00 +3°C° 0 mm 2 m/S 748 mmHg 49%
    23:00 +2°C° 0 mm 2 m/S 748 mmHg 49%

    29 März, Freitag

    Zeit Temperatur Niederschläge Wind Luftdruck Luftfeuchtigkeit
    00:00 +2°C° 0 mm 2 m/S 748 mmHg 52%
    01:00 +2°C° 0 mm 1 m/S 748 mmHg 55%
    02:00 +2°C° 0 mm 1 m/S 748 mmHg 58%
    03:00 +2°C° 0 mm 1 m/S 748 mmHg 60%
    04:00 +1°C° 0 mm 1 m/S 747 mmHg 62%
    05:00 +1°C° 0 mm 1 m/S 747 mmHg 64%
    06:00 +3°C° 0 mm 1 m/S 748 mmHg 57%
    07:00 +5°C° 0 mm 1 m/S 748 mmHg 50%
    08:00 +7°C° 0 mm 1 m/S 748 mmHg 44%
    09:00 +7°C° 0 mm 3 m/S 748 mmHg 41%
    10:00 +8°C° 0 mm 4 m/S 747 mmHg 39%
    11:00 +9°C° 0 mm 5 m/S 747 mmHg 36%
    12:00 +9°C° 0.1 mm 6 m/S 747 mmHg 43%
    13:00 +9°C° 0.1 mm 7 m/S 746 mmHg 49%
    14:00 +8°C° 0.1 mm 7 m/S 746 mmHg 55%
    15:00 +8°C° 0.3 mm 7 m/S 746 mmHg 57%
    16:00 +8°C° 0.3 mm 6 m/S 746 mmHg 59%
    17:00 +8°C° 0.3 mm 5 m/S 746 mmHg 61%
    18:00 +7°C° 0 mm 4 m/S 746 mmHg 66%
    19:00 +5°C° 0 mm 3 m/S 747 mmHg 71%
    20:00 +5°C° 0 mm 2 m/S 747 mmHg 76%
    21:00 +5°C° 0 mm 2 m/S 747 mmHg 75%
    22:00 +4°C° 0 mm 2 m/S 747 mmHg 73%
    23:00 +4°C° 0 mm 2 m/S 747 mmHg 72%
    Mehr zeigen